When you browse on this site, cookies collect data to enhance your experience and personalize the content and advertising you see.
Visit our Privacy Policy to learn more. By continuing to use the site, you agree to this use of cookies and data.
  • In Hungary
  • List of Countries
  • For 7 days
  • Water Temperature
  • Satellite Maps
  • Weather Map
  • News
  • Weather Widgets
  • user-avatar
    Login

    Hourly Weather Cangucu

    Today, 20 July, Saturday

    Time Temperature Precipitation Wind Pressure Humidity
    00:00 +14°C° 0 mm 1 mps 728 mmHg 94%
    01:00 +14°C° 0 mm 1 mps 728 mmHg 95%
    02:00 +13°C° 0 mm 1 mps 727 mmHg 96%
    03:00 +13°C° 0 mm 1 mps 727 mmHg 95%
    04:00 +14°C° 0 mm 1 mps 727 mmHg 94%
    05:00 +14°C° 0 mm 1 mps 727 mmHg 93%
    06:00 +14°C° 0 mm 1 mps 728 mmHg 91%
    07:00 +15°C° 0 mm 1 mps 728 mmHg 89%
    08:00 +15°C° 0 mm 1 mps 728 mmHg 87%
    09:00 +17°C° 0 mm 2 mps 728 mmHg 80%
    10:00 +19°C° 0 mm 2 mps 729 mmHg 74%
    11:00 +21°C° 0 mm 2 mps 729 mmHg 67%
    12:00 +23°C° 0 mm 2 mps 728 mmHg 66%
    13:00 +23°C° 0 mm 2 mps 727 mmHg 65%
    14:00 +24°C° 0 mm 2 mps 727 mmHg 64%
    15:00 +21°C° 0 mm 2 mps 726 mmHg 72%
    16:00 +19°C° 0 mm 2 mps 726 mmHg 81%
    17:00 +17°C° 0 mm 2 mps 726 mmHg 90%
    18:00 +17°C° 0 mm 2 mps 726 mmHg 91%
    19:00 +17°C° 0 mm 2 mps 725 mmHg 93%
    20:00 +16°C° 0 mm 2 mps 725 mmHg 94%
    21:00 +16°C° 0 mm 2 mps 725 mmHg 91%
    22:00 +16°C° 0 mm 2 mps 725 mmHg 89%
    23:00 +16°C° 0 mm 3 mps 725 mmHg 86%

    Tomorrow, 21 July, Sunday

    Time Temperature Precipitation Wind Pressure Humidity
    00:00 +16°C° 0 mm 3 mps 724 mmHg 85%
    01:00 +16°C° 0 mm 3 mps 724 mmHg 84%
    02:00 +16°C° 0 mm 3 mps 724 mmHg 83%
    03:00 +16°C° 0 mm 3 mps 724 mmHg 84%
    04:00 +16°C° 0 mm 3 mps 724 mmHg 84%
    05:00 +16°C° 0 mm 3 mps 724 mmHg 84%
    06:00 +17°C° 0 mm 3 mps 724 mmHg 81%
    07:00 +18°C° 0 mm 4 mps 724 mmHg 78%
    08:00 +19°C° 0 mm 4 mps 724 mmHg 75%
    09:00 +20°C° 0 mm 4 mps 724 mmHg 70%
    10:00 +22°C° 0 mm 5 mps 724 mmHg 65%
    11:00 +23°C° 0 mm 5 mps 724 mmHg 60%
    12:00 +23°C° 0 mm 5 mps 724 mmHg 60%
    13:00 +25°C° 0 mm 5 mps 723 mmHg 60%
    14:00 +25°C° 0 mm 5 mps 722 mmHg 60%
    15:00 +23°C° 0 mm 4 mps 722 mmHg 65%
    16:00 +21°C° 0 mm 4 mps 722 mmHg 70%
    17:00 +20°C° 0 mm 4 mps 722 mmHg 75%
    18:00 +19°C° 0.2 mm 4 mps 722 mmHg 77%
    19:00 +19°C° 0.2 mm 4 mps 722 mmHg 78%
    20:00 +19°C° 0.2 mm 4 mps 722 mmHg 80%
    21:00 +18°C° 0.2 mm 4 mps 722 mmHg 79%
    22:00 +18°C° 0.2 mm 4 mps 722 mmHg 78%
    23:00 +18°C° 0.2 mm 4 mps 723 mmHg 78%

    Day after tomorrow, 22 July, Monday

    Time Temperature Precipitation Wind Pressure Humidity
    00:00 +18°C° 0.1 mm 4 mps 722 mmHg 79%
    01:00 +17°C° 0.1 mm 3 mps 722 mmHg 81%
    02:00 +17°C° 0.1 mm 3 mps 722 mmHg 82%
    03:00 +17°C° 0.2 mm 3 mps 722 mmHg 83%
    04:00 +16°C° 0.2 mm 3 mps 722 mmHg 84%
    05:00 +16°C° 0.2 mm 3 mps 722 mmHg 84%
    06:00 +16°C° 0.3 mm 3 mps 723 mmHg 85%
    07:00 +16°C° 0.3 mm 3 mps 723 mmHg 86%
    08:00 +16°C° 0.3 mm 2 mps 724 mmHg 86%
    09:00 +17°C° 1 mm 2 mps 724 mmHg 87%
    10:00 +17°C° 1 mm 2 mps 724 mmHg 89%
    11:00 +17°C° 1 mm 2 mps 725 mmHg 90%
    12:00 +17°C° 0.5 mm 2 mps 724 mmHg 91%
    13:00 +18°C° 0.5 mm 1 mps 724 mmHg 92%
    14:00 +16°C° 0.5 mm 0 mps 724 mmHg 93%
    15:00 +16°C° 0.1 mm 1 mps 724 mmHg 94%
    16:00 +16°C° 0.1 mm 1 mps 724 mmHg 96%
    17:00 +15°C° 0.1 mm 2 mps 725 mmHg 98%
    18:00 +15°C° 0.3 mm 2 mps 725 mmHg 98%
    19:00 +14°C° 0.3 mm 2 mps 725 mmHg 98%
    20:00 +13°C° 0.3 mm 3 mps 726 mmHg 98%
    21:00 +12°C° 0.9 mm 3 mps 726 mmHg 98%
    22:00 +12°C° 0.9 mm 3 mps 726 mmHg 98%
    23:00 +12°C° 0.9 mm 4 mps 726 mmHg 97%

    23 July, Tuesday

    Time Temperature Precipitation Wind Pressure Humidity
    00:00 +12°C° 1.5 mm 4 mps 726 mmHg 98%
    01:00 +12°C° 1.5 mm 4 mps 725 mmHg 98%
    02:00 +12°C° 1.5 mm 4 mps 725 mmHg 98%
    03:00 +12°C° 4.1 mm 4 mps 725 mmHg 98%
    04:00 +11°C° 4.1 mm 4 mps 725 mmHg 98%
    05:00 +10°C° 4.1 mm 5 mps 725 mmHg 98%
    06:00 +10°C° 3.9 mm 5 mps 725 mmHg 98%
    07:00 +10°C° 3.9 mm 5 mps 726 mmHg 98%
    08:00 +10°C° 3.9 mm 5 mps 726 mmHg 98%
    09:00 +11°C° 2.1 mm 4 mps 726 mmHg 98%
    10:00 +11°C° 2.1 mm 4 mps 726 mmHg 97%
    11:00 +11°C° 2.1 mm 4 mps 727 mmHg 97%
    12:00 +10°C° 1.4 mm 5 mps 726 mmHg 97%
    13:00 +10°C° 1.4 mm 5 mps 726 mmHg 97%
    14:00 +10°C° 1.4 mm 5 mps 725 mmHg 97%
    15:00 +10°C° 5.3 mm 5 mps 725 mmHg 97%
    16:00 +10°C° 5.3 mm 6 mps 726 mmHg 97%
    17:00 +10°C° 5.3 mm 6 mps 726 mmHg 97%
    18:00 +10°C° 3.2 mm 6 mps 726 mmHg 97%
    19:00 +10°C° 3.2 mm 5 mps 727 mmHg 97%
    20:00 +10°C° 3.2 mm 5 mps 727 mmHg 97%
    21:00 +9°C° 1.4 mm 5 mps 728 mmHg 97%
    22:00 +9°C° 1.4 mm 5 mps 728 mmHg 97%
    23:00 +9°C° 1.4 mm 5 mps 728 mmHg 97%

    24 July, Wednesday

    Time Temperature Precipitation Wind Pressure Humidity
    00:00 +9°C° 1.1 mm 5 mps 728 mmHg 97%
    01:00 +8°C° 1.1 mm 5 mps 729 mmHg 97%
    02:00 +8°C° 1.1 mm 5 mps 729 mmHg 97%
    03:00 +8°C° 0.3 mm 5 mps 729 mmHg 96%
    04:00 +8°C° 0.3 mm 5 mps 729 mmHg 96%
    05:00 +8°C° 0.3 mm 5 mps 730 mmHg 95%
    06:00 +8°C° 0.2 mm 5 mps 730 mmHg 95%
    07:00 +8°C° 0.2 mm 5 mps 730 mmHg 95%
    08:00 +8°C° 0.2 mm 5 mps 731 mmHg 95%
    09:00 +8°C° 0.4 mm 5 mps 731 mmHg 95%
    10:00 +8°C° 0.4 mm 5 mps 731 mmHg 95%
    11:00 +8°C° 0.4 mm 5 mps 732 mmHg 95%
    12:00 +8°C° 0.3 mm 5 mps 732 mmHg 95%
    13:00 +8°C° 0.3 mm 4 mps 732 mmHg 95%
    14:00 +8°C° 0.3 mm 4 mps 732 mmHg 95%
    15:00 +7°C° 1.5 mm 4 mps 732 mmHg 95%
    16:00 +7°C° 1.5 mm 4 mps 732 mmHg 96%
    17:00 +7°C° 1.5 mm 4 mps 733 mmHg 97%
    18:00 +7°C° 1.5 mm 4 mps 733 mmHg 97%
    19:00 +7°C° 1.5 mm 4 mps 733 mmHg 97%
    20:00 +7°C° 1.5 mm 5 mps 733 mmHg 97%
    21:00 +7°C° 0.6 mm 4 mps 733 mmHg 97%
    22:00 +7°C° 0.6 mm 4 mps 733 mmHg 97%
    23:00 +7°C° 0.6 mm 4 mps 733 mmHg 97%

    25 July, Thursday

    Time Temperature Precipitation Wind Pressure Humidity
    00:00 +7°C° 0.3 mm 4 mps 733 mmHg 97%
    01:00 +7°C° 0.3 mm 4 mps 733 mmHg 96%
    02:00 +7°C° 0.3 mm 4 mps 733 mmHg 96%
    03:00 +7°C° 0.7 mm 4 mps 732 mmHg 96%
    04:00 +8°C° 0.7 mm 5 mps 732 mmHg 97%
    05:00 +8°C° 0.7 mm 5 mps 732 mmHg 97%
    06:00 +8°C° 2 mm 5 mps 732 mmHg 97%
    07:00 +8°C° 2 mm 5 mps 732 mmHg 97%
    08:00 +8°C° 2 mm 5 mps 732 mmHg 97%
    09:00 +8°C° 1.6 mm 5 mps 732 mmHg 97%
    10:00 +9°C° 1.6 mm 5 mps 732 mmHg 97%
    11:00 +9°C° 1.6 mm 5 mps 732 mmHg 97%
    12:00 +9°C° 1.6 mm 5 mps 731 mmHg 97%
    13:00 +9°C° 1.6 mm 5 mps 730 mmHg 97%
    14:00 +9°C° 1.6 mm 5 mps 730 mmHg 97%
    15:00 +9°C° 0.9 mm 5 mps 730 mmHg 97%
    16:00 +10°C° 0.9 mm 4 mps 729 mmHg 97%
    17:00 +11°C° 0.9 mm 4 mps 729 mmHg 98%
    18:00 +11°C° 0.9 mm 4 mps 729 mmHg 98%
    19:00 +11°C° 0.9 mm 4 mps 729 mmHg 98%
    20:00 +11°C° 0.9 mm 4 mps 729 mmHg 98%
    21:00 +11°C° 0.6 mm 4 mps 729 mmHg 98%
    22:00 +10°C° 0.6 mm 3 mps 728 mmHg 98%
    23:00 +10°C° 0.6 mm 3 mps 728 mmHg 98%
    Show more